SCP
0 0 0 0 0 0 0 0 0 0 0 0 0 0 0 0 0 0 0 0 0 0 0 0 0 0 0 0 0 0 0 0 0 0 0 0 0 0 0 0 0 0 0 0 0 0 0 0 0
0 0 0 0 0 0 0 0 0 0 0 0 0 0 0 0 0 0 0 0 0 0 0 0 0 0 0 0 0 0 0 0 0 0 0 0 0 0 0 0 0 0 0 0 0 0 0 0 0
0 0 0 0 0 0 0 0 0 0 0 0 0 0 0 0 0 0 0 0 0 0 0 0 0 0 0 0 0 0 0 0 0 0 0 0 0 0 0 0 0 0 0 0 0 0 0 0 0
0 0 0 0 0 0 0 0 0 0 0 0 0 0 0 0 0 0 0 0 0 0 0 0 0 0 0 0 0 0 0 0 0 0 0 0 0 0 0 0 0 0 0 0 0 0 0 0 0
0 0 0 0 0 0 0 0 0 0 0 0 0 0 0 0 0 0 0 0 0 0 0 0 0 0 0 0 0 0 0 0 0 0 0 0 0 0 0 0 0 0 0 0 0 0 0 0 0
0 0 0 0 0 0 0 0 0 0 0 0 0 0 0 0 0 0 0 0 0 0 0 0 0 0 0 0 0 0 0 0 0 0 0 0 0 0 0 0 0 0 0 0 0 0 0 0 0
0 0 0 0 0 0 0 0 0 0 0 0 0 0 0 0 0 0 0 0 0 0 0 0 0 0 0 0 0 0 0 0 0 0 0 0 0 0 0 0 0 0 0 0 0 0 0 0 0
0 0 0 0 0 0 0 0 0 0 0 0 0 0 0 0 0 0 0 0 0 0 0 0 0 0 0 0 0 0 0 0 0 0 0 0 0 0 0 0 0 0 0 0 0 0 0 0 0
0 0 0 0 0 0 0 0 0 0 0 0 0 0 0 0 0 0 0 0 0 0 0 0 0 0 0 0 0 0 0 0 0 0 0 0 0 0 0 0 0 0 0 0 0 0 0 0 0
0 0 0 0 0 0 0 0 0 0 0 0 0 0 0 0 0 0 0 0 0 0 0 0 0 0 0 0 0 0 0 0 0 0 0 0 0 0 0 0 0 0 0 0 0 0 0 0 0
0 0 0 0 0 0 0 0 0 0 0 0 0 0 0 0 0 0 0 0 0 0 0 0 0 0 0 0 0 0 0 0 0 0 0 0 0 0 0 0 0 0 0 0 0 0 0 0 0
0 0 0 0 0 0 0 0 0 0 0 0 0 0 0 0 0 0 0 0 0 0 0 0 0 0 0 0 0 0 0 0 0 0 0 0 0 0 0 0 0 0 0 0 0 0 0 0 0
0 0 0 0 0 0 0 0 0 0 0 0 0 0 0 0 0 0 0 0 0 0 0 0 0 0 0 0 0 0 0 0 0 0 0 0 0 0 0 0 0 0 0 0 0 0 0 0 0
0 0 0 0 0 0 0 0 0 0 0 0 0 0 0 0 0 0 0 0 0 0 0 0 0 0 0 0 0 0 0 0 0 0 0 0 0 0 0 0 0 0 0 0 0 0 0 0 0
0 0 0 0 0 0 0 0 0 0 0 0 0 0 0 0 0 0 0 0 0 0 0 0 0 0 0 0 0 0 0 0 0 0 0 0 0 0 0 0 0 0 0 0 0 0 0 0 0
0 0 0 0 0 0 0 0 0 0 0 0 0 0 0 0 0 0 0 0 0 0 0 0 0 0 0 0 0 0 0 0 0 0 0 0 0 0 0 0 0 0 0 0 0 0 0 0 0
0 0 0 0 0 0 0 0 0 0 0 0 0 0 0 0 0 0 0 0 0 0 0 0 0 0 0 0 0 0 0 0 0 0 0 0 0 0 0 0 0 0 0 0 0 0 0 0 0
0 0 0 0 0 0 0 0 0 0 0 0 0 0 0 0 0 0 0 0 0 0 0 0 0 0 0 0 0 0 0 0 0 0 0 0 0 0 0 0 0 0 0 0 0 0 0 0 0
0 0 0 0 0 0 0 0 0 0 0 0 0 0 0 0 0 0 0 0 0 0 0 0 0 0 0 0 0 0 0 0 0 0 0 0 0 0 0 0 0 0 0 0 0 0 0 0 0
0 0 0 0 0 0 0 0 0 0 0 0 0 0 0 0 0 0 0 0 0 0 0 0 0 0 0 0 0 0 0 0 0 0 0 0 0 0 0 0 0 0 0 0 0 0 0 0 0
0 0 0 0 0 0 0 -0 0 0 0 0 0 0 0 0 0 0 0 0 0 0 0 0 0 0 0 0 0 0 0 0 0 0 0 0 0 0 0 0 0 0 0 0 0 0 0 0 0
0 0 0 0 0 0 0 0 0 0 0 0 0 0 0 0 0 0 0 0 0 0 0 0 0 0 0 0 0 0 0 0 0 0 0 0 0 0 0 0 0 0 0 0 0 0 0 0 0
0 0 0 0 0 0 0 0 -0 0 0 0 0 0 0 0 0 0 0 0 0 0 0 0 0 0 0 0 0 0 0 0 0 0 0 0 0 0 0 0 0 0 0 0 0 0 0 0 0
0 0 0 0 0 0 0 0 0 0 0 0 0 0 0 0 0 0 0 0 0 0 0 0 0 0 0 0 0 0 0 0 0 0 0 0 0 0 0 0 0 0 0 0 0 0 0 0 0
0 0 0 0 0 0 0 0 0 0 0 0 0 0 0 0 0 0 0 0 0 0 0 0 0 0 0 0 0 0 0 0 0 0 0 0 0 0 0 0 0 0 0 0 0 0 0 0 0
0 0 0 0 0 0 0 0 0 0 0 0 0 0 0 0 0 0 0 0 0 0 0 0 0 0 0 0 0 0 0 0 0 0 0 0 0 0 0 0 0 0 0 0 0 0 0 0 0
0 0 0 0 0 0 0 0 0 0 0 0 0 0 0 0 0 0 0 0 0 0 0 0 0 0 0 0 0 0 0 0 0 0 0 0 0 0 0 0 0 0 0 0 0 0 0 0 0
0 0 0 0 0 0 0 0 0 0 0 0 0 0 0 0 0 0 0 -0 0 0 0 0 0 0 0 0 0 0 0 0 0 0 0 0 0 0 0 0 0 0 0 0 0 0 0 0 0
0 0 0 0 0 0 0 0 0 0 0 0 0 0 0 0 0 0 0 -0 -0 0 0 0 0 0 0 0 0 0 0 0 0 0 0 0 0 0 0 0 0 0 0 0 0 0 0 0 0
0 0 0 0 0 0 0 0 0 0 0 0 0 0 0 0 0 0 0 0 -0 0 0 0 0 0 0 0 0 0 0 0 0 0 0 0 0 0 0 0 0 0 0 0 0 0 0 0 0
Wind_Speed_500mb
17 22 21 14 6 9 5 11 6 4 4 6 24 16 19 13 7 7 33 33 28 26 25 23 21 19 17 16 16 16 14 13 11 9 9 10 10 10 10 11 11 12 14 14 14 13 14 15 16
23 23 18 6 9 5 8 9 12 3 20 26 19 16 14 5 12 33 42 46 30 26 28 25 22 19 17 16 16 14 13 10 9 8 8 9 12 14 14 16 16 17 18 19 19 18 17 19 21
24 25 11 8 7 10 10 5 12 15 14 9 12 22 9 12 28 44 31 43 35 33 31 28 23 19 16 14 13 12 10 7 4 5 5 8 12 15 16 18 19 20 21 22 24 24 21 23 24
16 12 6 7 9 10 9 13 10 16 11 7 28 17 11 11 48 33 40 37 35 35 30 27 23 19 15 11 8 6 5 3 4 5 7 10 11 13 15 17 20 23 24 26 27 28 28 27 26
12 7 5 2 6 6 3 13 11 4 9 12 9 9 9 40 21 29 40 37 36 36 29 24 20 16 12 8 5 2 2 3 5 7 9 11 14 17 19 21 22 24 23 26 30 32 32 30 31
6 4 6 5 6 3 1 7 11 6 12 14 15 16 13 30 28 35 39 38 34 30 27 22 16 12 8 7 7 7 7 9 10 11 12 14 16 19 21 24 27 29 29 29 30 32 36 37 36
8 6 7 6 5 7 7 4 6 9 13 5 26 9 19 38 32 39 41 37 35 30 24 18 12 10 8 8 8 8 8 9 10 11 13 15 17 19 21 23 27 30 32 34 36 38 37 40 43
4 7 1 5 7 6 2 5 4 8 4 19 15 12 17 49 45 41 37 37 34 31 26 18 14 10 7 8 8 9 10 10 11 12 14 17 18 21 23 25 27 30 33 36 38 40 43 46 45
4 7 2 1 2 3 3 3 3 6 11 7 8 11 7 55 53 48 43 38 35 31 23 15 13 12 8 9 9 11 12 14 13 14 16 18 20 21 22 24 28 31 32 35 39 43 44 46 49
7 7 7 3 2 3 7 1 2 4 4 5 9 11 21 57 61 57 52 45 39 32 23 17 15 14 12 11 11 12 13 14 14 16 19 22 25 26 25 25 26 28 32 37 39 42 45 48 51
4 8 8 2 2 3 2 1 6 7 5 16 16 27 36 56 58 55 50 43 34 26 23 18 18 17 17 15 13 14 14 14 16 20 23 26 27 26 27 27 29 31 33 35 38 41 45 48 51
6 4 1 3 3 1 2 7 9 13 6 11 5 24 43 53 54 53 51 45 39 32 24 21 19 20 20 18 17 15 15 15 18 21 25 27 28 28 28 29 30 33 35 37 40 43 46 47 50
4 4 4 2 0 1 8 11 11 24 23 18 11 27 51 53 49 45 40 37 34 37 30 25 22 22 23 23 18 16 16 17 21 25 29 32 33 33 33 33 34 37 39 42 44 45 47 50 53
4 5 5 1 1 3 4 6 12 4 6 34 19 28 46 54 46 40 41 41 39 36 35 30 28 27 26 25 21 19 18 20 25 29 32 35 38 38 37 37 39 41 43 45 47 51 54 56 56
7 4 2 2 2 4 11 5 12 14 9 6 36 32 42 50 46 43 38 42 39 34 34 34 32 29 25 25 23 21 21 24 28 32 35 38 40 41 41 43 44 47 47 49 52 54 57 59 61
4 5 5 1 5 4 6 13 5 7 15 19 25 36 41 44 49 40 37 43 42 37 37 35 34 32 30 27 25 24 25 29 33 36 39 42 43 44 45 47 48 50 52 57 60 62 64 66 65
12 3 2 4 2 5 2 13 8 7 9 21 26 31 36 45 46 45 44 47 48 41 36 37 35 35 33 29 28 27 29 32 37 40 43 45 46 46 48 51 50 53 59 63 66 68 67 71 73
5 4 5 7 5 3 8 28 28 54 45 56 62 55 43 41 51 49 49 49 46 38 34 33 36 36 35 31 30 31 34 36 41 43 44 46 46 46 50 51 54 59 65 68 69 71 71 70 73
4 3 5 7 7 7 10 21 34 49 36 47 57 52 47 43 46 48 51 50 44 37 33 32 33 31 31 32 34 36 39 41 43 44 45 47 47 49 52 56 61 67 71 72 70 69 68 66 56
6 3 8 9 1 5 12 30 34 19 10 18 34 41 35 41 39 46 53 46 38 31 29 28 26 28 32 36 37 41 45 48 46 46 45 46 49 50 53 60 67 69 70 69 64 59 64 56 46
5 3 4 7 15 4 14 14 7 6 2 9 6 12 32 44 43 42 45 39 32 24 18 19 23 30 36 37 41 44 47 49 48 45 45 47 49 52 58 63 67 69 66 64 58 49 48 51 40
3 3 4 6 10 5 10 9 14 6 4 3 9 19 30 36 35 36 37 31 21 14 11 16 23 32 37 40 44 46 50 48 44 47 51 52 53 58 64 68 66 63 60 56 49 44 39 37 40
3 6 4 5 7 7 10 6 16 5 7 12 15 19 24 29 33 36 32 29 17 8 15 22 29 36 38 42 46 48 45 45 47 50 54 55 59 64 65 63 58 53 50 46 45 42 39 39 41
5 7 11 7 7 5 7 7 12 7 8 5 10 26 27 30 31 31 33 22 15 26 27 31 33 33 37 41 42 42 43 45 50 51 55 59 64 66 65 59 52 47 42 38 37 36 39 42 44
11 11 7 10 7 10 7 2 20 13 10 12 24 35 34 32 33 33 30 23 34 41 41 36 31 30 33 35 35 37 41 47 51 52 58 63 67 67 62 53 47 43 36 32 34 36 39 40 43
4 10 8 11 5 9 6 12 12 11 19 16 32 43 40 38 34 30 25 35 44 47 45 39 33 31 30 30 33 37 44 47 48 53 59 64 65 65 54 47 43 39 33 32 36 38 42 44 46
5 1 3 11 3 7 6 15 20 5 11 7 29 44 48 44 37 30 29 38 41 43 39 34 33 27 26 29 32 38 41 43 48 54 61 64 61 57 48 42 39 37 36 37 38 42 44 46 48
8 2 7 6 3 9 10 12 13 11 14 12 16 49 56 48 42 26 25 31 35 38 34 33 28 25 26 29 33 36 37 41 48 57 59 56 52 45 39 38 36 38 38 39 39 42 44 47 49
3 3 5 5 8 9 5 12 14 13 16 22 37 61 67 63 55 23 21 25 33 36 34 28 25 27 29 31 34 34 34 38 48 53 50 47 43 38 35 35 37 39 41 41 44 45 47 49 51
8 11 10 8 12 7 4 17 10 18 11 23 37 63 69 66 62 30 25 31 35 33 32 27 28 29 28 31 32 31 31 38 43 44 45 43 38 35 35 35 40 42 45 44 46 48 52 56 58
Wind_Direction_500mb
194 188 178 164 76 66 232 257 236 165 75 53 88 106 115 61 130 184 145 160 180 176 171 163 154 152 155 164 172 176 174 175 177 188 198 206 217 223 237 252 252 252 254 254 256 267 263 257 254
175 173 165 135 105 119 255 259 228 191 137 111 79 91 51 88 116 141 147 174 187 186 170 163 155 151 148 143 152 159 166 172 179 192 207 234 249 252 253 253 254 259 259 261 258 262 261 266 262
163 166 157 127 132 176 213 237 169 134 151 194 109 74 83 125 149 152 169 168 177 175 165 159 156 151 148 147 143 142 140 146 161 197 216 240 249 255 260 262 259 256 255 259 262 257 253 251 262
156 146 95 108 205 244 209 195 188 139 106 118 120 75 95 148 159 179 166 173 175 169 162 157 154 152 152 153 151 147 158 183 225 258 265 269 267 266 263 261 261 263 260 258 257 256 259 262 258
142 137 83 155 233 261 124 174 179 134 118 108 127 135 94 150 175 179 175 176 178 169 165 162 160 159 161 166 177 198 265 281 273 269 271 271 274 276 277 274 272 269 268 264 261 259 262 262 263
124 112 80 201 243 198 45 165 157 137 132 122 101 113 151 182 189 184 181 177 179 178 172 171 171 177 190 215 232 251 266 279 291 297 296 293 289 283 278 276 275 274 272 270 267 263 259 261 261
103 92 195 198 212 168 200 149 84 156 130 88 141 86 150 166 186 185 180 180 183 185 184 183 190 208 227 248 266 278 280 282 286 293 301 304 304 298 293 288 282 278 273 269 266 264 262 259 259
87 95 81 2 214 186 346 83 103 143 143 128 188 158 175 179 180 185 186 188 192 193 193 196 211 228 256 277 292 302 304 302 306 308 311 311 310 305 300 294 288 284 280 277 272 267 262 260 259
112 58 186 344 323 274 4 101 68 102 139 130 156 154 209 175 181 187 189 192 197 198 201 204 224 245 249 264 279 291 294 297 304 309 316 320 317 310 304 299 294 289 284 280 276 272 269 265 260
97 115 204 191 252 289 342 97 134 172 149 156 142 162 173 177 187 194 198 203 205 207 209 218 232 240 241 250 265 279 284 292 300 311 319 324 325 321 315 311 302 294 288 285 281 277 272 268 265
103 173 158 174 354 320 277 292 307 142 225 219 213 176 175 183 193 204 210 216 222 218 224 233 230 237 247 257 269 278 281 286 300 313 320 323 324 321 318 315 312 308 301 295 286 280 277 274 270
92 62 81 134 349 240 277 295 274 232 234 181 235 211 187 192 200 208 214 216 214 220 225 226 238 253 256 263 271 271 274 283 296 308 313 315 315 315 315 313 311 308 305 302 299 295 288 281 275
87 147 112 141 44 254 290 265 263 260 226 228 250 207 197 198 207 213 219 216 218 227 232 243 256 266 268 269 269 271 278 291 304 313 317 321 321 318 317 315 312 310 308 307 305 301 296 290 283
120 135 135 81 344 326 330 276 337 316 220 225 209 211 208 208 213 216 213 213 221 230 231 241 260 271 271 265 266 272 277 290 303 311 316 321 322 319 316 313 311 309 307 306 305 304 300 296 291
120 106 35 323 336 333 330 258 233 278 218 239 206 210 214 219 218 223 223 219 225 232 234 245 262 271 277 265 265 272 277 292 302 308 312 315 317 315 312 312 311 309 307 306 304 301 298 294 291
52 51 38 292 348 344 6 275 264 322 206 213 210 220 220 225 225 225 221 220 224 233 243 255 266 275 279 271 267 271 280 294 302 305 307 312 315 314 312 312 311 309 308 308 308 306 302 297 291
19 176 326 308 45 331 60 275 272 249 240 240 232 233 234 225 219 218 219 214 217 229 245 258 269 274 276 267 265 270 283 294 299 303 307 312 314 312 309 310 308 307 306 305 305 303 302 299 296
236 22 312 269 12 340 275 264 277 278 270 264 266 264 239 230 219 213 215 218 224 237 252 258 262 263 270 264 267 275 285 293 298 301 305 306 306 305 305 305 304 305 305 306 305 303 300 297 296
115 134 263 278 40 341 255 274 274 286 272 259 257 253 239 226 217 210 208 217 226 239 248 259 263 261 258 263 269 279 287 290 293 296 300 301 302 304 305 306 307 306 304 304 304 303 301 297 294
66 80 286 287 119 358 297 284 286 285 276 276 261 245 236 212 205 206 206 214 225 242 252 248 255 259 263 268 278 284 289 293 296 299 300 303 304 305 305 306 305 303 302 301 300 300 300 296 299
41 161 323 259 324 256 318 293 311 287 95 38 80 203 204 198 189 186 193 206 224 226 236 254 265 270 273 279 283 288 293 295 297 297 298 300 301 305 306 306 303 301 299 298 297 293 298 298 301
316 10 31 15 35 272 21 279 301 307 229 148 135 144 158 171 178 185 188 184 183 189 236 271 279 279 278 279 285 289 292 294 297 301 304 306 306 307 308 307 303 300 297 292 291 290 294 291 289
219 28 67 101 91 43 340 69 272 304 253 225 207 188 174 172 171 169 170 168 175 245 290 294 289 280 277 279 282 287 290 295 299 303 303 305 307 309 309 307 301 297 293 289 284 282 279 278 279
64 54 33 58 95 16 265 120 283 232 223 200 204 197 183 176 176 178 181 190 287 298 296 303 298 285 275 276 280 285 292 298 301 303 305 308 309 308 308 305 300 300 298 293 288 283 279 275 275
63 51 334 350 5 230 320 29 245 266 246 208 192 196 192 191 194 197 204 254 289 296 297 303 296 286 278 276 279 289 296 299 303 306 308 309 309 309 306 302 300 299 298 295 291 288 287 284 277
73 141 159 233 263 274 355 242 251 237 266 271 215 195 192 199 204 211 238 268 283 288 290 295 287 283 279 280 286 291 296 300 302 305 307 309 309 308 307 303 301 300 294 291 288 287 288 288 286
253 19 170 101 76 47 254 291 294 264 300 305 195 192 200 204 208 218 255 271 281 284 285 283 283 277 275 277 284 293 298 301 305 308 309 308 307 306 306 306 304 302 297 292 287 285 286 285 284
156 156 40 6 310 282 283 279 242 290 251 255 235 211 207 207 207 233 271 273 282 278 272 275 274 275 278 281 290 294 297 302 308 311 311 308 305 303 304 303 302 301 297 292 289 288 285 285 283
32 316 34 129 173 207 263 257 218 225 230 221 225 219 212 209 208 241 296 301 300 274 264 266 273 278 278 282 289 295 299 307 313 314 314 310 306 302 299 300 297 293 292 291 287 284 284 282 278
170 197 159 147 261 236 188 264 222 233 235 236 253 230 221 218 214 249 302 320 312 268 252 260 266 270 273 280 289 294 301 312 318 321 322 315 309 308 305 300 297 293 292 291 287 284 281 281 279
Wind_Speed_850mb
17 22 21 14 6 9 5 11 6 4 4 6 24 16 19 13 7 7 33 33 28 26 25 23 21 19 17 16 16 16 14 13 11 9 9 10 10 10 10 11 11 12 14 14 14 13 14 15 16
23 23 18 6 9 5 8 9 12 3 20 26 19 16 14 5 12 33 42 46 30 26 28 25 22 19 17 16 16 14 13 10 9 8 8 9 12 14 14 16 16 17 18 19 19 18 17 19 21
24 25 11 8 7 10 10 5 12 15 14 9 12 22 9 12 28 44 31 43 35 33 31 28 23 19 16 14 13 12 10 7 4 5 5 8 12 15 16 18 19 20 21 22 24 24 21 23 24
16 12 6 7 9 10 9 13 10 16 11 7 28 17 11 11 48 33 40 37 35 35 30 27 23 19 15 11 8 6 5 3 4 5 7 10 11 13 15 17 20 23 24 26 27 28 28 27 26
12 7 5 2 6 6 3 13 11 4 9 12 9 9 9 40 21 29 40 37 36 36 29 24 20 16 12 8 5 2 2 3 5 7 9 11 14 17 19 21 22 24 23 26 30 32 32 30 31
6 4 6 5 6 3 1 7 11 6 12 14 15 16 13 30 28 35 39 38 34 30 27 22 16 12 8 7 7 7 7 9 10 11 12 14 16 19 21 24 27 29 29 29 30 32 36 37 36
8 6 7 6 5 7 7 4 6 9 13 5 26 9 19 38 32 39 41 37 35 30 24 18 12 10 8 8 8 8 8 9 10 11 13 15 17 19 21 23 27 30 32 34 36 38 37 40 43
4 7 1 5 7 6 2 5 4 8 4 19 15 12 17 49 45 41 37 37 34 31 26 18 14 10 7 8 8 9 10 10 11 12 14 17 18 21 23 25 27 30 33 36 38 40 43 46 45
4 7 2 1 2 3 3 3 3 6 11 7 8 11 7 55 53 48 43 38 35 31 23 15 13 12 8 9 9 11 12 14 13 14 16 18 20 21 22 24 28 31 32 35 39 43 44 46 49
7 7 7 3 2 3 7 1 2 4 4 5 9 11 21 57 61 57 52 45 39 32 23 17 15 14 12 11 11 12 13 14 14 16 19 22 25 26 25 25 26 28 32 37 39 42 45 48 51
4 8 8 2 2 3 2 1 6 7 5 16 16 27 36 56 58 55 50 43 34 26 23 18 18 17 17 15 13 14 14 14 16 20 23 26 27 26 27 27 29 31 33 35 38 41 45 48 51
6 4 1 3 3 1 2 7 9 13 6 11 5 24 43 53 54 53 51 45 39 32 24 21 19 20 20 18 17 15 15 15 18 21 25 27 28 28 28 29 30 33 35 37 40 43 46 47 50
4 4 4 2 0 1 8 11 11 24 23 18 11 27 51 53 49 45 40 37 34 37 30 25 22 22 23 23 18 16 16 17 21 25 29 32 33 33 33 33 34 37 39 42 44 45 47 50 53
4 5 5 1 1 3 4 6 12 4 6 34 19 28 46 54 46 40 41 41 39 36 35 30 28 27 26 25 21 19 18 20 25 29 32 35 38 38 37 37 39 41 43 45 47 51 54 56 56
7 4 2 2 2 4 11 5 12 14 9 6 36 32 42 50 46 43 38 42 39 34 34 34 32 29 25 25 23 21 21 24 28 32 35 38 40 41 41 43 44 47 47 49 52 54 57 59 61
4 5 5 1 5 4 6 13 5 7 15 19 25 36 41 44 49 40 37 43 42 37 37 35 34 32 30 27 25 24 25 29 33 36 39 42 43 44 45 47 48 50 52 57 60 62 64 66 65
12 3 2 4 2 5 2 13 8 7 9 21 26 31 36 45 46 45 44 47 48 41 36 37 35 35 33 29 28 27 29 32 37 40 43 45 46 46 48 51 50 53 59 63 66 68 67 71 73
5 4 5 7 5 3 8 28 28 54 45 56 62 55 43 41 51 49 49 49 46 38 34 33 36 36 35 31 30 31 34 36 41 43 44 46 46 46 50 51 54 59 65 68 69 71 71 70 73
4 3 5 7 7 7 10 21 34 49 36 47 57 52 47 43 46 48 51 50 44 37 33 32 33 31 31 32 34 36 39 41 43 44 45 47 47 49 52 56 61 67 71 72 70 69 68 66 56
6 3 8 9 1 5 12 30 34 19 10 18 34 41 35 41 39 46 53 46 38 31 29 28 26 28 32 36 37 41 45 48 46 46 45 46 49 50 53 60 67 69 70 69 64 59 64 56 46
5 3 4 7 15 4 14 14 7 6 2 9 6 12 32 44 43 42 45 39 32 24 18 19 23 30 36 37 41 44 47 49 48 45 45 47 49 52 58 63 67 69 66 64 58 49 48 51 40
3 3 4 6 10 5 10 9 14 6 4 3 9 19 30 36 35 36 37 31 21 14 11 16 23 32 37 40 44 46 50 48 44 47 51 52 53 58 64 68 66 63 60 56 49 44 39 37 40
3 6 4 5 7 7 10 6 16 5 7 12 15 19 24 29 33 36 32 29 17 8 15 22 29 36 38 42 46 48 45 45 47 50 54 55 59 64 65 63 58 53 50 46 45 42 39 39 41
5 7 11 7 7 5 7 7 12 7 8 5 10 26 27 30 31 31 33 22 15 26 27 31 33 33 37 41 42 42 43 45 50 51 55 59 64 66 65 59 52 47 42 38 37 36 39 42 44
11 11 7 10 7 10 7 2 20 13 10 12 24 35 34 32 33 33 30 23 34 41 41 36 31 30 33 35 35 37 41 47 51 52 58 63 67 67 62 53 47 43 36 32 34 36 39 40 43
4 10 8 11 5 9 6 12 12 11 19 16 32 43 40 38 34 30 25 35 44 47 45 39 33 31 30 30 33 37 44 47 48 53 59 64 65 65 54 47 43 39 33 32 36 38 42 44 46
5 1 3 11 3 7 6 15 20 5 11 7 29 44 48 44 37 30 29 38 41 43 39 34 33 27 26 29 32 38 41 43 48 54 61 64 61 57 48 42 39 37 36 37 38 42 44 46 48
8 2 7 6 3 9 10 12 13 11 14 12 16 49 56 48 42 26 25 31 35 38 34 33 28 25 26 29 33 36 37 41 48 57 59 56 52 45 39 38 36 38 38 39 39 42 44 47 49
3 3 5 5 8 9 5 12 14 13 16 22 37 61 67 63 55 23 21 25 33 36 34 28 25 27 29 31 34 34 34 38 48 53 50 47 43 38 35 35 37 39 41 41 44 45 47 49 51
8 11 10 8 12 7 4 17 10 18 11 23 37 63 69 66 62 30 25 31 35 33 32 27 28 29 28 31 32 31 31 38 43 44 45 43 38 35 35 35 40 42 45 44 46 48 52 56 58
Wind_Direction_850mb
194 188 178 164 76 66 232 257 236 165 75 53 88 106 115 61 130 184 145 160 180 176 171 163 154 152 155 164 172 176 174 175 177 188 198 206 217 223 237 252 252 252 254 254 256 267 263 257 254
175 173 165 135 105 119 255 259 228 191 137 111 79 91 51 88 116 141 147 174 187 186 170 163 155 151 148 143 152 159 166 172 179 192 207 234 249 252 253 253 254 259 259 261 258 262 261 266 262
163 166 157 127 132 176 213 237 169 134 151 194 109 74 83 125 149 152 169 168 177 175 165 159 156 151 148 147 143 142 140 146 161 197 216 240 249 255 260 262 259 256 255 259 262 257 253 251 262
156 146 95 108 205 244 209 195 188 139 106 118 120 75 95 148 159 179 166 173 175 169 162 157 154 152 152 153 151 147 158 183 225 258 265 269 267 266 263 261 261 263 260 258 257 256 259 262 258
142 137 83 155 233 261 124 174 179 134 118 108 127 135 94 150 175 179 175 176 178 169 165 162 160 159 161 166 177 198 265 281 273 269 271 271 274 276 277 274 272 269 268 264 261 259 262 262 263
124 112 80 201 243 198 45 165 157 137 132 122 101 113 151 182 189 184 181 177 179 178 172 171 171 177 190 215 232 251 266 279 291 297 296 293 289 283 278 276 275 274 272 270 267 263 259 261 261
103 92 195 198 212 168 200 149 84 156 130 88 141 86 150 166 186 185 180 180 183 185 184 183 190 208 227 248 266 278 280 282 286 293 301 304 304 298 293 288 282 278 273 269 266 264 262 259 259
87 95 81 2 214 186 346 83 103 143 143 128 188 158 175 179 180 185 186 188 192 193 193 196 211 228 256 277 292 302 304 302 306 308 311 311 310 305 300 294 288 284 280 277 272 267 262 260 259
112 58 186 344 323 274 4 101 68 102 139 130 156 154 209 175 181 187 189 192 197 198 201 204 224 245 249 264 279 291 294 297 304 309 316 320 317 310 304 299 294 289 284 280 276 272 269 265 260
97 115 204 191 252 289 342 97 134 172 149 156 142 162 173 177 187 194 198 203 205 207 209 218 232 240 241 250 265 279 284 292 300 311 319 324 325 321 315 311 302 294 288 285 281 277 272 268 265
103 173 158 174 354 320 277 292 307 142 225 219 213 176 175 183 193 204 210 216 222 218 224 233 230 237 247 257 269 278 281 286 300 313 320 323 324 321 318 315 312 308 301 295 286 280 277 274 270
92 62 81 134 349 240 277 295 274 232 234 181 235 211 187 192 200 208 214 216 214 220 225 226 238 253 256 263 271 271 274 283 296 308 313 315 315 315 315 313 311 308 305 302 299 295 288 281 275
87 147 112 141 44 254 290 265 263 260 226 228 250 207 197 198 207 213 219 216 218 227 232 243 256 266 268 269 269 271 278 291 304 313 317 321 321 318 317 315 312 310 308 307 305 301 296 290 283
120 135 135 81 344 326 330 276 337 316 220 225 209 211 208 208 213 216 213 213 221 230 231 241 260 271 271 265 266 272 277 290 303 311 316 321 322 319 316 313 311 309 307 306 305 304 300 296 291
120 106 35 323 336 333 330 258 233 278 218 239 206 210 214 219 218 223 223 219 225 232 234 245 262 271 277 265 265 272 277 292 302 308 312 315 317 315 312 312 311 309 307 306 304 301 298 294 291
52 51 38 292 348 344 6 275 264 322 206 213 210 220 220 225 225 225 221 220 224 233 243 255 266 275 279 271 267 271 280 294 302 305 307 312 315 314 312 312 311 309 308 308 308 306 302 297 291
19 176 326 308 45 331 60 275 272 249 240 240 232 233 234 225 219 218 219 214 217 229 245 258 269 274 276 267 265 270 283 294 299 303 307 312 314 312 309 310 308 307 306 305 305 303 302 299 296
236 22 312 269 12 340 275 264 277 278 270 264 266 264 239 230 219 213 215 218 224 237 252 258 262 263 270 264 267 275 285 293 298 301 305 306 306 305 305 305 304 305 305 306 305 303 300 297 296
115 134 263 278 40 341 255 274 274 286 272 259 257 253 239 226 217 210 208 217 226 239 248 259 263 261 258 263 269 279 287 290 293 296 300 301 302 304 305 306 307 306 304 304 304 303 301 297 294
66 80 286 287 119 358 297 284 286 285 276 276 261 245 236 212 205 206 206 214 225 242 252 248 255 259 263 268 278 284 289 293 296 299 300 303 304 305 305 306 305 303 302 301 300 300 300 296 299
41 161 323 259 324 256 318 293 311 287 95 38 80 203 204 198 189 186 193 206 224 226 236 254 265 270 273 279 283 288 293 295 297 297 298 300 301 305 306 306 303 301 299 298 297 293 298 298 301
316 10 31 15 35 272 21 279 301 307 229 148 135 144 158 171 178 185 188 184 183 189 236 271 279 279 278 279 285 289 292 294 297 301 304 306 306 307 308 307 303 300 297 292 291 290 294 291 289
219 28 67 101 91 43 340 69 272 304 253 225 207 188 174 172 171 169 170 168 175 245 290 294 289 280 277 279 282 287 290 295 299 303 303 305 307 309 309 307 301 297 293 289 284 282 279 278 279
64 54 33 58 95 16 265 120 283 232 223 200 204 197 183 176 176 178 181 190 287 298 296 303 298 285 275 276 280 285 292 298 301 303 305 308 309 308 308 305 300 300 298 293 288 283 279 275 275
63 51 334 350 5 230 320 29 245 266 246 208 192 196 192 191 194 197 204 254 289 296 297 303 296 286 278 276 279 289 296 299 303 306 308 309 309 309 306 302 300 299 298 295 291 288 287 284 277
73 141 159 233 263 274 355 242 251 237 266 271 215 195 192 199 204 211 238 268 283 288 290 295 287 283 279 280 286 291 296 300 302 305 307 309 309 308 307 303 301 300 294 291 288 287 288 288 286
253 19 170 101 76 47 254 291 294 264 300 305 195 192 200 204 208 218 255 271 281 284 285 283 283 277 275 277 284 293 298 301 305 308 309 308 307 306 306 306 304 302 297 292 287 285 286 285 284
156 156 40 6 310 282 283 279 242 290 251 255 235 211 207 207 207 233 271 273 282 278 272 275 274 275 278 281 290 294 297 302 308 311 311 308 305 303 304 303 302 301 297 292 289 288 285 285 283
32 316 34 129 173 207 263 257 218 225 230 221 225 219 212 209 208 241 296 301 300 274 264 266 273 278 278 282 289 295 299 307 313 314 314 310 306 302 299 300 297 293 292 291 287 284 284 282 278
170 197 159 147 261 236 188 264 222 233 235 236 253 230 221 218 214 249 302 320 312 268 252 260 266 270 273 280 289 294 301 312 318 321 322 315 309 308 305 300 297 293 292 291 287 284 281 281 279